sat.trackr.live / text

‹ back to catalog

STARLINK-2575

NORAD 48396 · 2021-038AV

PAYLOAD ACTIVE UNKNOWN

§ Identity

Operator
Country
US
Launch date
2021-05-04
Launch site
AFETR
Launch vehicle
Mass (kg)
RCS (m²)

Purposes: comms

External: N2YO · Heavens-Above · Gunter

§ Orbital elements

Epoch: 2026-05-24T22:35:34.559808Z

Period
94.01 min
Inclination
53.1601°
Eccentricity
0.0001141
Mean motion
15.31724849 rev/d
Perigee alt
469.9 km
Apogee alt
471.4 km
Semi-major
6,848.8 km
B*
2.2428e-4
RAAN
337.8624°
Arg perigee
85.4615°
Mean anomaly
274.6517°
Rev number
28,034

§ Raw data

STARLINK-25751 48396U 21038AV  26144.94137222  .00006606  00000+0  22428-3 0  99992 48396  53.1601 337.8624 0001141  85.4615 274.6517 15.31724849280340

JSON: /api/v1/satellites/48396 · /tle

For live sub-satellite position, see the globe view (requires WebGL).

§ Visibility from observer

Set your observer location to see the next 7 days of passes ≥ 10°. The values pass through the URL so the page stays shareable.

No JS? Fill the form by hand. The geolocation button needs JavaScript.